Location: ???????
(55.4362°N, 38.1183°E)
Time: 17:59:07
(UTC+00:00)

Meteor 2-10 Rocket - Pass Details

Date: 17 June 2021
Orbit: 733 x 885 km, 81.2° (Epoch: 30 July)

Event Time Altitude Azimuth Distance (km) Brightness Sun altitude
Rises 19:19:53 0° 346° (NNW) 3,261 8.6 -6.5°
Reaches altitude 10° 19:22:19 10° 351° (N) 2,310 7.4 -6.7°
Maximum altitude 19:27:25 59° 71° (ENE) 863 3.8 -7.0°
Drops below altitude 10° 19:32:22 10° 151° (SSE) 2,240 5.2 -7.4°
Enters shadow 19:32:34 - 151° (SSE) 2,313 5.3 -7.4°
